CZ-6A DEB, 60830

Orbit data source: Space-Track

CZ-6A DEB, 60830 is space debris in LEO originally from a launch on Tue, 06 Aug 2024 UTC launched from the Taiyaun Space Center, China (TSC). Debris objects in space refer to the collection of defunct objects orbiting the Earth. Examples of debris include non-operational satellites, rocket bodies, and fragments generated from explosions, collisions, or faulty payload assembly.

Loading next visibility...
Identifier
60830, 2024-140HH
Orbit
LEO
Country
Flag of CNCN / PRC
Related business
Manufacturer
SAST
Mission
Spacecraft
Bus & Motor
Unknown
Mass
Unknown
Launch date (UTC)
2024-08-06 (2 years ago)
Launch vehicle
Unknown
Launch site
Taiyaun Space Center, China (TSC)
Object type
Payload
Rocket body
Debris
Shape & HBR
Unknown shape, 0.2 m
Radar Cross Section
Small (<0.1 m²)

Expand to show TLE details & history
Last TLE update: 9 hours ago

TLE from 9 hours ago
0 CZ-6A DEB
1 60830U 24140HH  26118.69462025  .00000353  00000-0  21941-3 0  9991
2 60830  88.9010 276.1650 0150197  55.8019 305.7289 13.97219706 87041
Epoch: 2026-04-28T16:40Z
TLE epoch observation values (Epoch: 2026-04-28T16:40:15.189Z)
Latitude
-0.00002°
Longitude
169.43546°
Altitude
843.678 km
Speed
7.463 km/s
True Right ascension
18h 24m 39s
True Declination
0° 00' 00"
Sunlit
Object was in full shadow at epoch
Visualization orbit readout
Latitude
Unknown
Longitude
Unknown
Altitude
Unknown
Speed
Unknown
Apparent Right ascension
Unknown
Apparent Declination
Unknown
Sunlit
N/A
Visualization observer readout
Local Sidereal Time
09:12:59
Azimuth
Unknown
Elevation
Unknown
Doppler factor
Unknown
Orbital elements
Apogee altitude
1,009.744 km
Perigee altitude
791.101 km
Semi-major axis
7,278.559 km
Eccentricity
0.01502
Inclination
88.901°
RAAN
276.165°
Arg. of periapsis
55.8019°
True anomaly
304.31637°
Mean anomaly
305.7289°
Eccentric anomaly
305.02417°
Mean motion
3.49522 °/min
Orbital period
103 mins
BSTAR
0.00021941
Loading maneuver chart data...
Computing Atmospheric mass density...

Documentation

Showing up to 5 results
|